GSAT-16

Last updated on Thu Oct 30 2025 00:02:49 GMT+0000 (Coordinated Universal Time)

1 40332U 14078A 25302.48199777 .00000095 00000+0 00000+0 0 9998 2 40332 0.0302 253.4745 0004813 237.8565 135.3177 1.00271824 39791
UTC large
Height (km)
Speed (km/s)
/
Latitude / Longitude
Inclination (degrees)
Orbital Period (minutes)
Azimuth
Elevation
Range (km)
Doppler Factor

Next 0 passes for location: London (51.5072 / 0.1276)

Sorry there are no passes over London.